This is the latest recevied weather packets stored in our database for station/object WP3OF-3. If no packets are shown the sender has not sent any weather packets the latest 10 day(s).
| Time | Temp. | Humidity | Pressure | Rain* | Wind** | Luminosity | Snow |
|---|---|---|---|---|---|---|---|
| 1777490565 | 24.44° C | 92% | 1015.7 hPa | 0 mm | - | - | - |
| 1777490261 | 23.89° C | 91% | 1015.7 hPa | 0 mm | - | - | - |
| 1777489959 | 24.44° C | 92% | 1015.8 hPa | 0 mm | - | - | - |
| 1777489657 | 24.44° C | 92% | 1015.8 hPa | 1.27 mm | - | - | - |
| 1777489353 | 23.89° C | 92% | 1015.7 hPa | 3.05 mm | - | - | - |
| 1777489050 | 24.44° C | 91% | 1016 hPa | 3.05 mm | - | - | - |
| 1777488747 | 24.44° C | 90% | 1016.1 hPa | 18.03 mm | - | - | - |
| 1777488445 | 24.44° C | 89% | 1016 hPa | 39.62 mm | - | - | - |
| 1777488143 | 25° C | 88% | 1016.1 hPa | 25.91 mm | - | - | - |
| 1777487841 | 25.56° C | 86% | 1016.5 hPa | 3.05 mm | - | - | - |
| 1777487538 | 26.11° C | 84% | 1016 hPa | 0 mm | - | - | - |
| 1777487235 | 26.11° C | 82% | 1016.2 hPa | 0 mm | - | - | - |
| 1777486931 | 26.67° C | 81% | 1016 hPa | 0 mm | - | - | - |
| 1777486628 | 27.22° C | 81% | 1015.9 hPa | 0 mm | - | - | - |
| 1777486326 | 27.22° C | 82% | 1016.1 hPa | 0 mm | - | - | - |
| 1777486023 | 27.22° C | 80% | 1016.2 hPa | 0 mm | - | - | - |
| 1777485719 | 27.78° C | 79% | 1016.2 hPa | 0 mm | - | - | - |
| 1777485415 | 27.78° C | 80% | 1016.5 hPa | 0 mm | - | - | - |
| 1777485110 | 27.78° C | 78% | 1016.7 hPa | 0 mm | - | - | - |
| 1777484808 | 27.78° C | 78% | 1016.7 hPa | 0 mm | - | - | - |
| 1777484504 | 28.33° C | 77% | 1016.6 hPa | 0 mm | - | - | - |
| 1777484202 | 28.33° C | 78% | 1016.6 hPa | 0 mm | - | - | - |
| 1777483897 | 27.78° C | 79% | 1016.7 hPa | 0 mm | - | - | - |
| 1777483594 | 27.78° C | 78% | 1016.7 hPa | 0 mm | - | - | - |
| 1777483294 | 27.78° C | 78% | 1017 hPa | 0 mm | - | - | - |
* Rain latest hour (hover to see other rain measurements)
** Current wind speed in m/s (hover to see current wind gust speed)